Location: Newark
(52.4787°S, 179.0532°W)
Time: 20:51:46
(UTC+00:00)

Vanguard 1 - Pass Details

Date: 19 November 2019
Orbit: 652 x 3831 km, 34.2° (Epoch: 05 December)

Event Time Altitude Azimuth Distance (km) Brightness Sun altitude
Rises 13:16:02 0° 284° (WNW) 6,276 13.8 -15.2°
Reaches altitude 10° 13:19:54 10° 290° (WNW) 5,628 13.5 -14.9°
Maximum altitude 13:36:54 44° 353° (N) 4,506 13.0 -13.8°
Drops below altitude 10° 13:57:49 10° 54° (NE) 6,808 14.3 -12.2°
Sets 14:03:10 0° 60° (ENE) 7,637 14.7 -11.7°
